Find WHDW 02-02

NORAD ID: 62972 Int'l Des: 2025-030 Owner: ZXW Country: CN Constellation: xingwang operational
LEOCIRCULAR

Live-Position

3D-Globus wird geladen...

Über WHDW 02-02

Beschreibung wird geladen...

Nächste Überflüge

Passes for default location (London). Set your location on the main map for personalized predictions.

Höhenverlauf

Loading altitude history...

Zweizeiliger Elementsatz

1 62972U 25030B 26137.87108367 -.00000102 00000-0 47749-4 0 9994
2 62972 50.0039 344.6863 0001290 70.5289 289.5722 13.29321366 61820
Epoch: 17. Mai 2026 • Age: 6 hours

Aktueller Status

Höhe 1152.1 km
Geschwindigkeit 7.28 km/s
Subsatellitenpunkt 40.43°N, 161.33°W
Startdatum 11. Feb. 2025
Alter 1.2 years
Typ other

Technische Details

Klassifizierung Payload
Masse 700.00 kg
Trockenmasse 700.00 kg
Gesamtmasse 700.00 kg
Länge 3.00 m
Durchmesser 1.00 m
Spannweite 10.00 m
Form Box + 2 Pan
Hersteller CAST
Bus-Typ Xingwang C
Phasenstatus In Orbit
Besitzer/Staat ZXW/CN

Most Searched